Location: La Fredeussais
(48.1780°N, 1.3980°W)
Time: 16:44:24
(UTC+00:00)

Terra - Pass Details

Date: 09 May 2021
Orbit: 701 x 703 km, 98.2° (Epoch: 24 June)

Event Time Altitude Azimuth Distance (km) Brightness Sun altitude
Exits shadow 20:06:23 - 98° (E) 2,696 4.3 -5.9°
Reaches altitude 10° 20:08:45 10° 76° (ENE) 2,177 4.0 -6.2°
Maximum altitude 20:10:30 12° 54° (NE) 2,046 4.0 -6.5°
Drops below altitude 10° 20:12:15 10° 33° (NNE) 2,182 4.4 -6.7°
Sets 20:15:57 0° 3° (N) 3,106 5.7 -7.2°
